Weather History for Atka, AK

Change the Weather History Date:

Saturday, March 23, 2013

  Actual Average (PADK) Record (PADK)
Temperature  
Mean Temperature 37 °F -  
Max Temperature 39 °F 38 °F 69 °F (1998)
Min Temperature 35 °F 30 °F 15 °F (2007)
Degree Days  
Heating Degree Days 28    
Moisture  
Dew Point 30 °F    
Average Humidity 74    
Maximum Humidity 87    
Minimum Humidity 65    
Precipitation  
Precipitation 0.00 in - - ()
Sea Level Pressure  
Sea Level Pressure 30.05 in    
Wind  
Wind Speed 21 mph (WNW)    
Max Wind Speed 31 mph    
Max Gust Speed 46 mph    
Averages and records for this station are not official NWS values.
T = Trace of Precipitation, MM = Missing Value Source: NWS Daily Summary

Daily Weather History Graph

Daily Weather History Graph

Search for Another Location

Airport:

Trip Planner

Search our weather history database for the weather conditions in past years. The results will help you decide how hot, cold, wet, or windy it might be!

Date:

Astronomy

Mar. 23, 2013 Rise Set
Actual Time 8:31 AM HADT 8:56 PM HADT
Civil Twilight 7:57 AM HADT 9:30 PM HADT
Nautical Twilight 7:16 AM HADT 10:10 PM HADT
Astronomical Twilight 6:34 AM HADT 10:53 PM HADT
Moon 5:16 PM HADT (3/23) 6:39 AM HADT (3/23)
Length of Visible Light 13h 33m
Length of Day
12h 25m
Waxing Gibbous, 86% of the Moon is Illuminated
Mar 23
Waxing Gibbous
Mar 27
Full
Apr 2
Last Quarter
Apr 10
New
Apr 18
First Quarter

Hourly Weather History & Observations

Time (HADT) Temp. Windchill Dew Point Humidity Pressure Visibility Wind Dir Wind Speed Gust Speed Precip Events Conditions
12:16 AM 35.6 °F 27.1 °F 30.2 °F 81% 29.89 in - WSW 12.7 mph 33.4 mph N/A   Overcast
12:36 AM 35.6 °F 27.5 °F 30.2 °F 81% 29.88 in - West 11.5 mph - N/A   Mostly Cloudy
12:56 AM 35.6 °F 25.9 °F 28.4 °F 75% 29.89 in - West 16.1 mph 23.0 mph N/A   Mostly Cloudy
1:36 AM 37.4 °F 28.9 °F 28.4 °F 70% 29.89 in - WNW 13.8 mph 21.9 mph N/A   Overcast
1:56 AM 37.4 °F 27.5 °F 28.4 °F 70% 29.89 in - West 18.4 mph 21.9 mph N/A   Overcast
2:16 AM 37.4 °F 28.5 °F 28.4 °F 70% 29.90 in - West 15.0 mph 21.9 mph N/A   Overcast
2:36 AM 37.4 °F 28.5 °F 28.4 °F 70% 29.90 in - West 15.0 mph 23.0 mph N/A   Overcast
2:56 AM 37.4 °F 27.8 °F 28.4 °F 70% 29.90 in - West 17.3 mph 26.5 mph N/A   Overcast
3:16 AM 37.4 °F 26.9 °F 26.6 °F 65% 29.90 in - West 20.7 mph 26.5 mph N/A   Mostly Cloudy
3:36 AM 37.4 °F 27.2 °F 28.4 °F 70% 29.91 in - West 19.6 mph 33.4 mph N/A   Overcast
3:56 AM 37.4 °F 28.2 °F 28.4 °F 70% 29.91 in - West 16.1 mph 27.6 mph N/A   Mostly Cloudy
4:16 AM 37.4 °F 26.6 °F 28.4 °F 70% 29.92 in - West 21.9 mph 31.1 mph N/A   Overcast
4:36 AM 35.6 °F 22.7 °F 30.2 °F 81% 29.92 in - West 28.8 mph 39.1 mph N/A   Overcast
4:56 AM 35.6 °F 24.0 °F 30.2 °F 81% 29.92 in - West 23.0 mph 33.4 mph N/A   Overcast
5:16 AM 37.4 °F 26.4 °F 30.2 °F 75% 29.92 in - West 23.0 mph 29.9 mph N/A   Overcast
5:36 AM 37.4 °F 25.9 °F 30.2 °F 75% 29.91 in - West 25.3 mph 36.8 mph N/A   Overcast
5:56 AM 37.4 °F 25.6 °F 28.4 °F 70% 29.92 in - West 26.5 mph 34.5 mph N/A   Overcast
6:16 AM 37.4 °F 25.9 °F 28.4 °F 70% 29.93 in - West 25.3 mph 35.7 mph N/A   Overcast
6:36 AM 37.4 °F 26.6 °F 28.4 °F 70% 29.93 in - West 21.9 mph 34.5 mph N/A   Overcast
6:56 AM 39.2 °F 27.6 °F 28.4 °F 65% 29.93 in - West 28.8 mph 40.3 mph N/A   Overcast
7:16 AM 39.2 °F 27.4 °F 28.4 °F 65% 29.93 in - West 29.9 mph 40.3 mph N/A   Overcast
7:36 AM 37.4 °F 25.2 °F 30.2 °F 75% 29.94 in - West 28.8 mph 46.0 mph N/A   Overcast
7:56 AM 37.4 °F 26.4 °F 30.2 °F 75% 29.94 in - West 23.0 mph 35.7 mph N/A   Overcast
8:16 AM 39.2 °F 27.4 °F 30.2 °F 70% 29.94 in - West 29.9 mph 42.6 mph N/A   Overcast
8:36 AM 37.4 °F 25.4 °F 32.0 °F 81% 29.94 in - West 27.6 mph 39.1 mph N/A   Overcast
8:56 AM 37.4 °F 24.8 °F 33.8 °F 87% 29.94 in - West 31.1 mph 42.6 mph N/A   Unknown
9:16 AM 37.4 °F 25.0 °F 33.8 °F 87% 29.95 in - West 29.9 mph 43.7 mph N/A   Unknown
9:36 AM 37.4 °F 25.4 °F 33.8 °F 87% 29.96 in - West 27.6 mph 38.0 mph N/A   Unknown
9:56 AM 37.4 °F 26.1 °F 33.8 °F 87% 29.97 in - West 24.2 mph 34.5 mph N/A   Unknown
10:16 AM 37.4 °F 25.4 °F 33.8 °F 87% 29.98 in - West 27.6 mph 35.7 mph N/A   Unknown
10:36 AM 37.4 °F 25.6 °F 33.8 °F 87% 30.00 in - WNW 26.5 mph 33.4 mph N/A   Unknown
10:56 AM 37.4 °F 25.9 °F 33.8 °F 87% 30.01 in - WNW 25.3 mph 32.2 mph N/A   Unknown
11:16 AM 39.2 °F 28.7 °F 33.8 °F 81% 30.02 in - WNW 23.0 mph 34.5 mph N/A   Overcast
11:36 AM 39.2 °F 28.0 °F 33.8 °F 81% 30.03 in - WNW 26.5 mph 34.5 mph N/A   Overcast
11:56 AM 39.2 °F 28.3 °F 33.8 °F 81% 30.04 in - WNW 25.3 mph 33.4 mph N/A   Mostly Cloudy
12:16 PM 37.4 °F 25.9 °F 33.8 °F 87% 30.04 in - WNW 25.3 mph 38.0 mph N/A   Unknown
12:36 PM 39.2 °F 28.3 °F 33.8 °F 81% 30.05 in - WNW 25.3 mph 34.5 mph N/A   Overcast
12:56 PM 39.2 °F 27.8 °F 32.0 °F 75% 30.06 in - WNW 27.6 mph 34.5 mph N/A   Overcast
1:16 PM 39.2 °F 28.0 °F 30.2 °F 70% 30.07 in - WNW 26.5 mph 34.5 mph N/A   Overcast
1:36 PM 39.2 °F 28.7 °F 30.2 °F 70% 30.09 in - NW 23.0 mph 31.1 mph N/A   Overcast
1:56 PM 39.2 °F 28.5 °F 32.0 °F 75% 30.09 in - WNW 24.2 mph 29.9 mph N/A   Overcast
2:16 PM 39.2 °F 29.3 °F 30.2 °F 70% 30.10 in - WNW 20.7 mph 31.1 mph N/A   Overcast
2:36 PM 39.2 °F 28.7 °F 30.2 °F 70% 30.11 in - WNW 23.0 mph 29.9 mph N/A   Overcast
2:56 PM 39.2 °F 28.5 °F 32.0 °F 75% 30.12 in - WNW 24.2 mph 34.5 mph N/A   Overcast
3:16 PM 39.2 °F 28.5 °F 30.2 °F 70% 30.12 in - WNW 24.2 mph 29.9 mph N/A   Overcast
3:36 PM 39.2 °F 28.0 °F 30.2 °F 70% 30.12 in - WNW 26.5 mph 32.2 mph N/A   Overcast
3:56 PM 39.2 °F 28.7 °F 30.2 °F 70% 30.13 in - WNW 23.0 mph 33.4 mph N/A   Overcast
4:16 PM 39.2 °F 28.7 °F 32.0 °F 75% 30.14 in - WNW 23.0 mph 33.4 mph N/A   Mostly Cloudy
4:36 PM 39.2 °F 28.3 °F 30.2 °F 70% 30.14 in - WNW 25.3 mph 33.4 mph N/A   Overcast
4:56 PM 39.2 °F 28.3 °F 30.2 °F 70% 30.15 in - WNW 25.3 mph 33.4 mph N/A   Mostly Cloudy
5:16 PM 37.4 °F 26.4 °F 30.2 °F 75% 30.15 in - WNW 23.0 mph 36.8 mph N/A   Overcast
5:36 PM 37.4 °F 25.9 °F 26.6 °F 65% 30.15 in - WNW 25.3 mph 33.4 mph N/A   Overcast
5:56 PM 37.4 °F 26.1 °F 26.6 °F 65% 30.15 in - WNW 24.2 mph 31.1 mph N/A   Overcast
6:16 PM 37.4 °F 25.6 °F 28.4 °F 70% 30.15 in - WNW 26.5 mph 32.2 mph N/A   Overcast
6:36 PM 37.4 °F 26.1 °F 30.2 °F 75% 30.16 in - NW 24.2 mph 31.1 mph N/A   Overcast
6:56 PM 37.4 °F 26.1 °F 30.2 °F 75% 30.16 in - WNW 24.2 mph 31.1 mph N/A   Overcast
7:16 PM 37.4 °F 26.9 °F 28.4 °F 70% 30.17 in - NW 20.7 mph 29.9 mph N/A   Overcast
7:36 PM 37.4 °F 27.5 °F 28.4 °F 70% 30.18 in - WNW 18.4 mph 24.2 mph N/A   Overcast
7:56 PM 35.6 °F 24.0 °F 28.4 °F 75% 30.18 in - NW 23.0 mph 27.6 mph N/A   Mostly Cloudy
8:16 PM 35.6 °F 25.2 °F 28.4 °F 75% 30.18 in - NW 18.4 mph 23.0 mph N/A   Overcast
8:36 PM 35.6 °F 25.2 °F 28.4 °F 75% 30.20 in - WNW 18.4 mph 23.0 mph N/A   Mostly Cloudy
8:56 PM 35.6 °F 24.8 °F 28.4 °F 75% 30.20 in - NW 19.6 mph 24.2 mph N/A   Mostly Cloudy
9:16 PM 35.6 °F 25.2 °F 28.4 °F 75% 30.21 in - NW 18.4 mph 24.2 mph N/A   Mostly Cloudy
9:36 PM 35.6 °F 24.8 °F 26.6 °F 70% 30.21 in - NW 19.6 mph 27.6 mph N/A   Mostly Cloudy
9:56 PM 35.6 °F 25.9 °F 28.4 °F 75% 30.22 in - WNW 16.1 mph 23.0 mph N/A   Overcast
10:16 PM 35.6 °F 24.2 °F 24.8 °F 65% 30.23 in - NW 21.9 mph 29.9 mph N/A   Overcast
10:36 PM 35.6 °F 26.2 °F 26.6 °F 70% 30.24 in - NW 15.0 mph - N/A   Overcast
10:56 PM 35.6 °F 25.5 °F 26.6 °F 70% 30.25 in - NW 17.3 mph 21.9 mph N/A   Overcast
11:16 PM 35.6 °F 26.6 °F 24.8 °F 65% 30.26 in - NW 13.8 mph 23.0 mph N/A   Overcast
11:36 PM 35.6 °F 26.6 °F 26.6 °F 70% 30.26 in - NW 13.8 mph 19.6 mph N/A   Overcast
11:56 PM 35.6 °F 26.6 °F 24.8 °F 65% 30.26 in - NW 13.8 mph 20.7 mph N/A   Overcast